Terug naar catalogus

FREGAT R/B

ActiefHEO
NORAD 43688·ROCKET BODY·🇷🇺 Russia

Gelanceerd Nov 3, 2018 vanaf Plesetsk Cosmodrome

Loading…

Volgende Passages (komende 24 uur)

TLE

VersSource: Space-Track

Epoch: Sep 13, 2026, 12:12 UTC

1 43688U 18086B   26256.50881517  .00000016  00000-0  00000-0 0  9995
2 43688  64.2169 193.8094 0063434 130.5487 229.9986  2.08703164 59663

Volg FREGAT R/B in realtime met AllMySat

Download on the App Store